RYR84LL LEAM-EBCI

Flight info

Callsign RYR84LL
Flight time 2h 29m
Altitude 34000
Route AGIDO M192 ARPEX DCT BAZAS M192 BLN N865 VTB N867 RBO DCT OSTIX N867 DGO L176 LUSEM DCT LULUT DCT ADABI DCT BOKNO UN858 VANAD UN874 BAMES UT191 PODEM UN873 BAZOS DCT BELDI DCT VEKIN Z173 ARVOL
Aircraft B738/M-SDE3FGILRWY/SB1

Departure

Time 2026-04-29 09:19
Airport Almería Airport (LEAM)

Arrival

Time 2026-04-29 11:49
Airport Brussels South Charleroi Airport (EBCI)
Time Latitude Longitude Altitude Speed Heading
2026-04-29 09:07 36.84650 -2.37256 40 ft 0 kts 242°
2026-04-29 09:13 36.84648 -2.37261 42 ft 1 kts 242°
2026-04-29 09:13 36.84639 -2.37268 42 ft 2 kts 202°
2026-04-29 09:13 36.84627 -2.37269 41 ft 2 kts 180°
2026-04-29 09:13 36.84614 -2.37267 42 ft 2 kts 171°
2026-04-29 09:14 36.84597 -2.37262 42 ft 3 kts 162°
2026-04-29 09:14 36.84589 -2.37241 41 ft 3 kts 87°
2026-04-29 09:14 36.84597 -2.37204 41 ft 6 kts 72°
2026-04-29 09:14 36.84612 -2.37145 42 ft 8 kts 73°
2026-04-29 09:15 36.84631 -2.37066 44 ft 10 kts 73°
2026-04-29 09:15 36.84649 -2.36981 45 ft 10 kts 86°
2026-04-29 09:15 36.84621 -2.36905 46 ft 10 kts 124°
2026-04-29 09:15 36.84616 -2.36821 47 ft 11 kts 75°
2026-04-29 09:16 36.84641 -2.36717 47 ft 14 kts 73°
2026-04-29 09:16 36.84672 -2.36590 50 ft 17 kts 73°
2026-04-29 09:16 36.84709 -2.36441 52 ft 19 kts 73°
2026-04-29 09:16 36.84750 -2.36275 53 ft 21 kts 73°
2026-04-29 09:17 36.84794 -2.36092 55 ft 23 kts 73°
2026-04-29 09:17 36.84840 -2.35905 55 ft 22 kts 73°
2026-04-29 09:17 36.84885 -2.35724 57 ft 22 kts 73°
2026-04-29 09:17 36.84928 -2.35547 58 ft 20 kts 73°
2026-04-29 09:18 36.84948 -2.35407 62 ft 15 kts 102°
2026-04-29 09:18 36.84872 -2.35331 63 ft 15 kts 175°
2026-04-29 09:18 36.84788 -2.35420 61 ft 32 kts 252°
2026-04-29 09:18 36.84651 -2.35971 55 ft 100 kts 253°
2026-04-29 09:19 36.84390 -2.37040 48 ft 154 kts 252°
2026-04-29 09:19 36.84067 -2.38387 587 ft 160 kts 252°
2026-04-29 09:19 36.83741 -2.39710 1342 ft 161 kts 251°
2026-04-29 09:19 36.83396 -2.41091 1843 ft 180 kts 251°
2026-04-29 09:20 36.82987 -2.42705 2180 ft 205 kts 252°
2026-04-29 09:20 36.82544 -2.44444 2692 ft 214 kts 252°
2026-04-29 09:20 36.82086 -2.46233 3313 ft 218 kts 252°
2026-04-29 09:20 36.81320 -2.47853 4078 ft 220 kts 222°
2026-04-29 09:21 36.79956 -2.48698 4860 ft 224 kts 190°
2026-04-29 09:21 36.78408 -2.48484 5591 ft 230 kts 158°
2026-04-29 09:21 36.77123 -2.47249 6137 ft 247 kts 127°
2026-04-29 09:21 36.76488 -2.45142 6359 ft 276 kts 93°
2026-04-29 09:22 36.76827 -2.42755 6912 ft 286 kts 65°
2026-04-29 09:22 36.78013 -2.40767 7623 ft 289 kts 37°
2026-04-29 09:22 36.79791 -2.39670 8402 ft 287 kts
2026-04-29 09:22 36.81768 -2.39717 9157 ft 287 kts 343°
2026-04-29 09:23 36.83613 -2.40595 9771 ft 290 kts 334°
2026-04-29 09:23 36.85430 -2.41689 9908 ft 291 kts 332°
2026-04-29 09:23 36.87268 -2.42848 9937 ft 292 kts 331°
2026-04-29 09:23 36.89052 -2.43975 9929 ft 290 kts 332°
2026-04-29 09:24 36.90879 -2.45118 9940 ft 289 kts 332°
2026-04-29 09:24 36.92654 -2.46219 9942 ft 289 kts 332°
2026-04-29 09:24 36.94454 -2.47327 9939 ft 288 kts 332°
2026-04-29 09:24 36.96257 -2.48433 9938 ft 288 kts 332°
2026-04-29 09:25 36.98057 -2.49534 9944 ft 288 kts 332°
2026-04-29 09:25 36.99862 -2.50636 9947 ft 289 kts 332°
2026-04-29 09:25 37.01669 -2.51739 9952 ft 289 kts 332°
2026-04-29 09:25 37.03504 -2.52859 9952 ft 290 kts 332°
2026-04-29 09:26 37.05299 -2.53954 9946 ft 291 kts 332°
2026-04-29 09:26 37.07142 -2.55080 9948 ft 291 kts 332°
2026-04-29 09:26 37.08952 -2.56185 10007 ft 300 kts 332°
2026-04-29 09:26 37.10899 -2.57377 10186 ft 322 kts 332°
2026-04-29 09:27 37.12965 -2.58641 10579 ft 336 kts 332°
2026-04-29 09:27 37.15083 -2.59935 11213 ft 341 kts 332°
2026-04-29 09:27 37.17224 -2.61244 11951 ft 344 kts 332°
2026-04-29 09:27 37.19370 -2.62597 12704 ft 347 kts 328°
2026-04-29 09:28 37.21339 -2.64347 13449 ft 349 kts 318°
2026-04-29 09:28 37.23217 -2.66297 14171 ft 352 kts 317°
2026-04-29 09:28 37.25103 -2.68283 14873 ft 356 kts 317°
2026-04-29 09:28 37.27015 -2.70290 15526 ft 361 kts 317°
2026-04-29 09:29 37.28956 -2.72315 16219 ft 365 kts 317°
2026-04-29 09:29 37.32915 -2.76417 17556 ft 373 kts 317°
2026-04-29 09:29 37.34928 -2.78498 18219 ft 376 kts 316°
2026-04-29 09:30 37.36960 -2.80597 18792 ft 380 kts 316°
2026-04-29 09:30 37.39007 -2.82714 19404 ft 383 kts 316°
2026-04-29 09:30 37.41067 -2.84846 20007 ft 385 kts 316°
2026-04-29 09:30 37.43145 -2.86998 20612 ft 388 kts 317°
2026-04-29 09:31 37.45237 -2.89162 21205 ft 391 kts 317°
2026-04-29 09:31 37.47351 -2.91350 21770 ft 395 kts 317°
2026-04-29 09:31 37.49479 -2.93553 22342 ft 398 kts 317°
2026-04-29 09:31 37.51625 -2.95778 22921 ft 401 kts 317°
2026-04-29 09:32 37.53782 -2.98017 23472 ft 404 kts 317°
2026-04-29 09:32 37.55956 -3.00273 23945 ft 406 kts 317°
2026-04-29 09:32 37.58142 -3.02546 24438 ft 408 kts 317°
2026-04-29 09:32 37.60331 -3.04826 24931 ft 409 kts 317°
2026-04-29 09:33 37.62529 -3.07120 25449 ft 410 kts 317°
2026-04-29 09:33 37.64723 -3.09413 25986 ft 410 kts 317°
2026-04-29 09:33 37.66182 -3.10939 26313 ft 411 kts 317°
2026-04-29 09:33 37.68384 -3.13244 26766 ft 413 kts 317°
2026-04-29 09:34 37.70613 -3.15578 27066 ft 419 kts 317°
2026-04-29 09:34 37.72860 -3.17933 27466 ft 421 kts 317°
2026-04-29 09:34 37.75119 -3.20296 27929 ft 421 kts 317°
2026-04-29 09:34 37.77380 -3.22654 28380 ft 422 kts 317°
2026-04-29 09:35 37.79652 -3.25025 28788 ft 424 kts 317°
2026-04-29 09:35 37.81930 -3.27402 29275 ft 424 kts 317°
2026-04-29 09:35 37.84194 -3.29766 29895 ft 420 kts 317°
2026-04-29 09:35 37.86437 -3.32111 30479 ft 416 kts 317°
2026-04-29 09:36 37.88655 -3.34433 30997 ft 413 kts 317°
2026-04-29 09:36 37.90863 -3.36747 31470 ft 411 kts 317°
2026-04-29 09:36 37.93064 -3.39058 31787 ft 413 kts 316°
2026-04-29 09:36 37.95280 -3.41387 32103 ft 414 kts 316°
2026-04-29 09:37 37.97485 -3.43705 32618 ft 410 kts 316°
2026-04-29 09:37 37.99664 -3.45994 33247 ft 403 kts 316°
2026-04-29 09:37 38.01810 -3.48252 33746 ft 400 kts 315°
2026-04-29 09:37 38.03955 -3.50513 33927 ft 404 kts 315°
2026-04-29 09:38 38.08315 -3.55117 33910 ft 407 kts 315°
2026-04-29 09:38 38.12653 -3.59632 33908 ft 402 kts 320°
2026-04-29 09:39 38.15176 -3.61264 33954 ft 414 kts 335°
2026-04-29 09:39 38.18008 -3.62138 33920 ft 426 kts 348°
2026-04-29 09:39 38.24045 -3.61865 33931 ft 439 kts 359°
2026-04-29 09:40 38.30150 -3.61154 33928 ft 442 kts 359°
2026-04-29 09:40 38.36286 -3.60482 33922 ft 443 kts 359°
2026-04-29 09:41 38.42430 -3.59862 33921 ft 442 kts 358°
2026-04-29 09:41 38.48554 -3.59263 33908 ft 440 kts 358°
2026-04-29 09:42 38.54625 -3.58670 33917 ft 436 kts 358°
2026-04-29 09:42 38.60656 -3.58080 33926 ft 433 kts 358°
2026-04-29 09:43 38.66664 -3.57491 33924 ft 433 kts 358°
2026-04-29 09:43 38.72668 -3.56901 33921 ft 433 kts 358°
2026-04-29 09:44 38.78684 -3.56309 33919 ft 434 kts 358°
2026-04-29 09:44 38.84724 -3.55714 33948 ft 437 kts 358°
2026-04-29 09:45 38.90817 -3.55112 33920 ft 440 kts 358°
2026-04-29 09:45 38.96939 -3.54505 33914 ft 442 kts 359°
2026-04-29 09:46 39.03042 -3.53900 33917 ft 443 kts 358°
2026-04-29 09:46 39.09240 -3.53290 33922 ft 445 kts 359°
2026-04-29 09:47 39.15425 -3.52679 33924 ft 447 kts 359°
2026-04-29 09:47 39.21599 -3.52068 33909 ft 449 kts 359°
2026-04-29 09:48 39.27822 -3.51450 33913 ft 448 kts 359°
2026-04-29 09:48 39.34042 -3.50832 33915 ft 449 kts
2026-04-29 09:49 39.40273 -3.50212 33919 ft 449 kts
2026-04-29 09:49 39.46551 -3.49585 33918 ft 450 kts
2026-04-29 09:50 39.52793 -3.48961 33927 ft 450 kts
2026-04-29 09:50 39.59005 -3.48340 33916 ft 451 kts
2026-04-29 09:51 39.65311 -3.47701 33912 ft 452 kts
2026-04-29 09:51 39.71543 -3.47067 33911 ft 452 kts
2026-04-29 09:52 39.77824 -3.46426 33917 ft 453 kts
2026-04-29 09:52 39.84092 -3.45361 33910 ft 455 kts
2026-04-29 09:53 39.90342 -3.44037 33903 ft 455 kts
2026-04-29 09:53 39.96587 -3.42728 33893 ft 455 kts
2026-04-29 09:54 40.02840 -3.41458 33904 ft 455 kts
2026-04-29 09:54 40.09107 -3.40199 33913 ft 456 kts
2026-04-29 09:55 40.15390 -3.38939 33919 ft 457 kts
2026-04-29 09:55 40.21703 -3.37668 33914 ft 460 kts
2026-04-29 09:56 40.28034 -3.36391 33911 ft 460 kts
2026-04-29 09:56 40.34366 -3.35110 33909 ft 460 kts
2026-04-29 09:57 40.40683 -3.33831 33918 ft 459 kts
2026-04-29 09:57 40.47002 -3.32548 33910 ft 459 kts
2026-04-29 09:58 40.53280 -3.31272 33910 ft 459 kts
2026-04-29 09:58 40.59582 -3.29988 33914 ft 458 kts
2026-04-29 09:59 40.65892 -3.28699 33913 ft 458 kts
2026-04-29 09:59 40.72191 -3.27411 33913 ft 458 kts
2026-04-29 10:00 40.78492 -3.26120 33911 ft 458 kts
2026-04-29 10:00 40.84795 -3.24825 33920 ft 458 kts
2026-04-29 10:01 40.91089 -3.23462 33909 ft 458 kts 10°
2026-04-29 10:01 40.97379 -3.22032 33913 ft 459 kts 10°
2026-04-29 10:02 41.03671 -3.20602 33906 ft 459 kts 10°
2026-04-29 10:02 41.09975 -3.19178 33914 ft 460 kts 10°
2026-04-29 10:03 41.16300 -3.17750 33899 ft 461 kts 10°
2026-04-29 10:03 41.22616 -3.16322 33888 ft 461 kts 10°
2026-04-29 10:04 41.28941 -3.14888 33893 ft 461 kts 10°
2026-04-29 10:04 41.35267 -3.13451 33883 ft 462 kts 10°
2026-04-29 10:05 41.41603 -3.12008 33877 ft 462 kts 10°
2026-04-29 10:05 41.47900 -3.10572 33869 ft 462 kts 10°
2026-04-29 10:06 41.54240 -3.09130 33876 ft 462 kts 10°
2026-04-29 10:06 41.60589 -3.07695 33870 ft 463 kts 10°
2026-04-29 10:07 41.66943 -3.06255 33866 ft 463 kts 10°
2026-04-29 10:07 41.73304 -3.04809 33861 ft 463 kts
2026-04-29 10:08 41.79662 -3.03352 33870 ft 464 kts
2026-04-29 10:08 41.86019 -3.01888 33880 ft 463 kts
2026-04-29 10:09 41.92376 -3.00421 33876 ft 463 kts
2026-04-29 10:09 41.98732 -2.98952 33879 ft 463 kts
2026-04-29 10:10 42.05087 -2.97481 33884 ft 463 kts
2026-04-29 10:10 42.11440 -2.96007 33884 ft 463 kts
2026-04-29 10:11 42.17797 -2.94530 33886 ft 463 kts
2026-04-29 10:11 42.24155 -2.93049 33890 ft 464 kts
2026-04-29 10:12 42.30517 -2.91563 33872 ft 464 kts
2026-04-29 10:12 42.36897 -2.90071 33881 ft 468 kts
2026-04-29 10:13 42.43262 -2.88202 33861 ft 469 kts 21°
2026-04-29 10:13 42.48893 -2.83982 33867 ft 459 kts 42°
2026-04-29 10:14 42.53639 -2.78274 33877 ft 455 kts 45°
2026-04-29 10:14 42.58315 -2.72496 33890 ft 454 kts 45°
2026-04-29 10:15 42.63025 -2.66744 33861 ft 457 kts 44°
2026-04-29 10:15 42.67770 -2.60991 33871 ft 458 kts 44°
2026-04-29 10:16 42.71720 -2.56202 33886 ft 458 kts 44°
2026-04-29 10:16 42.77271 -2.49455 33885 ft 458 kts 44°
2026-04-29 10:17 42.81222 -2.44641 33882 ft 458 kts 44°
2026-04-29 10:17 42.85969 -2.38844 33889 ft 458 kts 44°
2026-04-29 10:18 42.90713 -2.33038 33888 ft 458 kts 44°
2026-04-29 10:18 42.95455 -2.27221 33873 ft 459 kts 44°
2026-04-29 10:19 43.00198 -2.21389 33889 ft 459 kts 44°
2026-04-29 10:19 43.04946 -2.15517 33881 ft 461 kts 44°
2026-04-29 10:20 43.09705 -2.09621 33893 ft 462 kts 44°
2026-04-29 10:20 43.14485 -2.03696 33875 ft 464 kts 44°
2026-04-29 10:21 43.19275 -1.97748 33879 ft 465 kts 44°
2026-04-29 10:21 43.24070 -1.91779 33882 ft 466 kts 44°
2026-04-29 10:22 43.28867 -1.85794 33878 ft 466 kts 44°
2026-04-29 10:22 43.34071 -1.80515 33888 ft 467 kts 28°
2026-04-29 10:23 43.39773 -1.76259 33876 ft 467 kts 31°
2026-04-29 10:23 43.45226 -1.71400 33891 ft 467 kts 34°
2026-04-29 10:24 43.50597 -1.66381 33898 ft 467 kts 34°
2026-04-29 10:24 43.56005 -1.61396 33882 ft 467 kts 34°
2026-04-29 10:25 43.61427 -1.56458 33876 ft 467 kts 33°
2026-04-29 10:25 43.66857 -1.51524 33860 ft 467 kts 33°
2026-04-29 10:26 43.72278 -1.46586 33874 ft 466 kts 33°
2026-04-29 10:26 43.77694 -1.41639 33884 ft 466 kts 33°
2026-04-29 10:27 43.85803 -1.34209 33888 ft 467 kts 33°
2026-04-29 10:28 43.91221 -1.29231 33896 ft 468 kts 33°
2026-04-29 10:28 43.96647 -1.24235 33887 ft 469 kts 33°
2026-04-29 10:29 44.02051 -1.19248 33877 ft 469 kts 33°
2026-04-29 10:29 44.07477 -1.14229 33863 ft 468 kts 33°
2026-04-29 10:30 44.12893 -1.09208 33883 ft 467 kts 33°
2026-04-29 10:30 44.18292 -1.04192 33892 ft 466 kts 33°
2026-04-29 10:31 44.23680 -0.99175 33900 ft 466 kts 33°
2026-04-29 10:31 44.29060 -0.94153 33893 ft 465 kts 33°
2026-04-29 10:32 44.34440 -0.89121 33905 ft 465 kts 33°
2026-04-29 10:32 44.39843 -0.84110 33897 ft 466 kts 30°
2026-04-29 10:33 44.45669 -0.80231 33908 ft 464 kts 20°
2026-04-29 10:33 44.51633 -0.76728 33909 ft 465 kts 20°
2026-04-29 10:34 44.57599 -0.73182 33910 ft 466 kts 21°
2026-04-29 10:34 44.63564 -0.69557 33903 ft 468 kts 21°
2026-04-29 10:35 44.69486 -0.65919 33911 ft 467 kts 21°
2026-04-29 10:35 44.75439 -0.62249 33910 ft 466 kts 21°
2026-04-29 10:36 44.81366 -0.58590 33906 ft 465 kts 21°
2026-04-29 10:36 44.87284 -0.54930 33916 ft 464 kts 21°
2026-04-29 10:37 44.93190 -0.51269 33918 ft 464 kts 21°
2026-04-29 10:37 44.99096 -0.47601 33906 ft 463 kts 21°
2026-04-29 10:38 45.04997 -0.43928 33906 ft 463 kts 22°
2026-04-29 10:38 45.10885 -0.40253 33915 ft 462 kts 22°
2026-04-29 10:39 45.16786 -0.36563 33926 ft 466 kts 22°
2026-04-29 10:39 45.22722 -0.32841 33911 ft 466 kts 22°
2026-04-29 10:40 45.28601 -0.29148 33914 ft 464 kts 22°
2026-04-29 10:40 45.34486 -0.25441 33923 ft 462 kts 22°
2026-04-29 10:41 45.40353 -0.21738 33932 ft 461 kts 22°
2026-04-29 10:41 45.46211 -0.18033 33931 ft 461 kts 22°
2026-04-29 10:42 45.52072 -0.14317 33942 ft 461 kts 22°
2026-04-29 10:42 45.57944 -0.10585 33955 ft 463 kts 22°
2026-04-29 10:43 45.63835 -0.06833 33939 ft 464 kts 22°
2026-04-29 10:43 45.69739 -0.03064 33932 ft 465 kts 22°
2026-04-29 10:44 45.75647 0.00717 33919 ft 465 kts 22°
2026-04-29 10:44 45.81547 0.04501 33931 ft 464 kts 22°
2026-04-29 10:45 45.87429 0.08284 33935 ft 463 kts 22°
2026-04-29 10:45 45.93263 0.12043 33934 ft 462 kts 22°
2026-04-29 10:46 45.99125 0.15829 33943 ft 461 kts 22°
2026-04-29 10:46 46.04975 0.19617 33926 ft 461 kts 22°
2026-04-29 10:47 46.10811 0.23404 33933 ft 460 kts 22°
2026-04-29 10:47 46.16641 0.27195 33934 ft 459 kts 22°
2026-04-29 10:48 46.22463 0.30992 33940 ft 459 kts 21°
2026-04-29 10:48 46.28280 0.34793 33940 ft 459 kts 21°
2026-04-29 10:49 46.34097 0.38603 33943 ft 459 kts 21°
2026-04-29 10:49 46.39906 0.42418 33944 ft 458 kts 21°
2026-04-29 10:50 46.45692 0.46226 33935 ft 456 kts 21°
2026-04-29 10:50 46.51459 0.50030 33935 ft 454 kts 21°
2026-04-29 10:51 46.57262 0.53591 33933 ft 450 kts 12°
2026-04-29 10:51 46.63316 0.55628 33944 ft 445 kts
2026-04-29 10:52 46.69364 0.57508 33940 ft 444 kts
2026-04-29 10:52 46.75392 0.59453 33947 ft 443 kts
2026-04-29 10:53 46.81408 0.61441 33953 ft 443 kts
2026-04-29 10:53 46.87382 0.63426 33958 ft 443 kts
2026-04-29 10:54 46.93401 0.65429 33962 ft 444 kts
2026-04-29 10:54 46.99430 0.67439 33965 ft 444 kts
2026-04-29 10:55 47.05471 0.69366 33959 ft 443 kts
2026-04-29 10:55 47.11581 0.70113 33966 ft 440 kts 359°
2026-04-29 10:56 47.17695 0.70612 33974 ft 440 kts 359°
2026-04-29 10:56 47.23802 0.71189 33985 ft 439 kts
2026-04-29 10:57 47.29899 0.71822 33984 ft 439 kts
2026-04-29 10:57 47.35982 0.72465 33992 ft 438 kts
2026-04-29 10:58 47.42053 0.73104 33995 ft 437 kts
2026-04-29 10:58 47.48113 0.73754 33994 ft 437 kts
2026-04-29 10:58 47.51115 0.74502 33982 ft 440 kts 13°
2026-04-29 10:59 47.54036 0.75862 34003 ft 440 kts 16°
2026-04-29 10:59 47.59832 0.78829 33991 ft 441 kts 17°
2026-04-29 11:00 47.65603 0.81747 33989 ft 441 kts 17°
2026-04-29 11:00 47.71418 0.84626 33978 ft 440 kts 16°
2026-04-29 11:01 47.77222 0.87490 33993 ft 439 kts 16°
2026-04-29 11:01 47.83008 0.90355 34010 ft 438 kts 17°
2026-04-29 11:02 47.88777 0.93247 34010 ft 437 kts 17°
2026-04-29 11:02 47.94523 0.96160 34011 ft 435 kts 17°
2026-04-29 11:03 48.00255 0.99069 34017 ft 434 kts 17°
2026-04-29 11:03 48.05979 1.01978 34022 ft 434 kts 17°
2026-04-29 11:04 48.11699 1.04891 34023 ft 434 kts 17°
2026-04-29 11:04 48.17427 1.07815 34031 ft 435 kts 17°
2026-04-29 11:05 48.22191 1.10251 34044 ft 436 kts 17°
2026-04-29 11:05 48.27930 1.13175 34039 ft 436 kts 17°
2026-04-29 11:06 48.33679 1.16105 34037 ft 436 kts 17°
2026-04-29 11:06 48.39426 1.19044 34046 ft 436 kts 17°
2026-04-29 11:07 48.45165 1.21987 34053 ft 435 kts 17°
2026-04-29 11:07 48.50891 1.24931 34057 ft 435 kts 17°
2026-04-29 11:08 48.56615 1.27874 34065 ft 434 kts 16°
2026-04-29 11:08 48.62339 1.30759 34059 ft 433 kts 16°
2026-04-29 11:09 48.68042 1.33624 34078 ft 431 kts 16°
2026-04-29 11:09 48.73716 1.36490 34081 ft 429 kts 16°
2026-04-29 11:10 48.79354 1.39349 34087 ft 426 kts 16°
2026-04-29 11:10 48.84971 1.42205 34096 ft 425 kts 16°
2026-04-29 11:11 48.90578 1.45062 34106 ft 425 kts 16°
2026-04-29 11:11 48.96156 1.47910 34104 ft 426 kts 16°
2026-04-29 11:12 49.01914 1.49827 34111 ft 423 kts
2026-04-29 11:12 49.07755 1.51051 34108 ft 424 kts
2026-04-29 11:13 49.13597 1.52358 34105 ft 424 kts
2026-04-29 11:13 49.19417 1.53724 34102 ft 422 kts
2026-04-29 11:14 49.25127 1.55692 34117 ft 423 kts 21°
2026-04-29 11:14 49.27722 1.57829 34118 ft 426 kts 32°
2026-04-29 11:14 49.30011 1.60705 34139 ft 427 kts 41°
2026-04-29 11:15 49.34272 1.67050 34131 ft 426 kts 42°
2026-04-29 11:15 49.38511 1.73383 34130 ft 425 kts 41°
2026-04-29 11:16 49.42777 1.79665 34125 ft 425 kts 41°
2026-04-29 11:16 49.47040 1.85926 34128 ft 423 kts 41°
2026-04-29 11:17 49.51285 1.92177 34156 ft 422 kts 41°
2026-04-29 11:17 49.55507 1.98413 34157 ft 420 kts 40°
2026-04-29 11:18 49.59716 2.04640 34156 ft 419 kts 41°
2026-04-29 11:18 49.61801 2.07733 34006 ft 415 kts 41°
2026-04-29 11:18 49.63865 2.10799 33732 ft 407 kts 41°
2026-04-29 11:18 49.65894 2.13816 33349 ft 404 kts 41°
2026-04-29 11:19 49.67906 2.16811 32996 ft 400 kts 41°
2026-04-29 11:19 49.69900 2.19781 32629 ft 397 kts 40°
2026-04-29 11:19 49.71879 2.22734 32263 ft 395 kts 41°
2026-04-29 11:19 49.73849 2.25676 31890 ft 392 kts 41°
2026-04-29 11:20 49.75803 2.28597 31549 ft 389 kts 41°
2026-04-29 11:20 49.77743 2.31500 31207 ft 387 kts 40°
2026-04-29 11:20 49.79671 2.34392 30858 ft 385 kts 41°
2026-04-29 11:20 49.81593 2.37274 30506 ft 383 kts 41°
2026-04-29 11:21 49.83505 2.40147 30148 ft 382 kts 41°
2026-04-29 11:21 49.85404 2.43004 29752 ft 380 kts 41°
2026-04-29 11:21 49.87265 2.45807 29379 ft 377 kts 41°
2026-04-29 11:21 49.89159 2.48663 29027 ft 373 kts 41°
2026-04-29 11:22 49.91017 2.51466 28655 ft 371 kts 41°
2026-04-29 11:22 49.92829 2.54204 28328 ft 367 kts 41°
2026-04-29 11:22 49.94675 2.56997 27966 ft 365 kts 40°
2026-04-29 11:22 49.96458 2.59699 27696 ft 360 kts 42°
2026-04-29 11:23 49.98230 2.62395 27432 ft 355 kts 41°
2026-04-29 11:23 49.99985 2.65071 27105 ft 352 kts 42°
2026-04-29 11:23 50.01725 2.67726 26758 ft 349 kts 43°
2026-04-29 11:23 50.03452 2.70364 26422 ft 347 kts 43°
2026-04-29 11:24 50.05168 2.72989 26091 ft 345 kts 43°
2026-04-29 11:24 50.06870 2.75594 25779 ft 342 kts 44°
2026-04-29 11:24 50.08557 2.78179 25451 ft 339 kts 44°
2026-04-29 11:24 50.10230 2.80745 25120 ft 337 kts 45°
2026-04-29 11:25 50.11892 2.83298 24796 ft 334 kts 45°
2026-04-29 11:25 50.13541 2.85833 24468 ft 332 kts 45°
2026-04-29 11:25 50.15183 2.88359 24147 ft 330 kts 46°
2026-04-29 11:25 50.16812 2.90865 23818 ft 328 kts 49°
2026-04-29 11:26 50.20032 2.95833 23128 ft 323 kts 49°
2026-04-29 11:26 50.21621 2.98289 22814 ft 320 kts 49°
2026-04-29 11:26 50.23193 3.00721 22488 ft 317 kts 49°
2026-04-29 11:27 50.24751 3.03135 22174 ft 314 kts 48°
2026-04-29 11:27 50.26300 3.05534 21854 ft 312 kts 48°
2026-04-29 11:27 50.27832 3.07912 21543 ft 310 kts 48°
2026-04-29 11:27 50.29354 3.10275 21240 ft 307 kts 48°
2026-04-29 11:28 50.30866 3.12625 20929 ft 305 kts 48°
2026-04-29 11:28 50.32363 3.14955 20641 ft 303 kts 47°
2026-04-29 11:28 50.33852 3.17275 20330 ft 301 kts 47°
2026-04-29 11:28 50.35330 3.19578 20037 ft 299 kts 47°
2026-04-29 11:29 50.36799 3.21868 19737 ft 297 kts 47°
2026-04-29 11:29 50.38261 3.24152 19438 ft 296 kts 47°
2026-04-29 11:29 50.39731 3.26450 18932 ft 302 kts 46°
2026-04-29 11:29 50.41214 3.28767 18640 ft 300 kts 46°
2026-04-29 11:30 50.42688 3.31064 18403 ft 298 kts 46°
2026-04-29 11:30 50.44156 3.33350 18130 ft 297 kts 46°
2026-04-29 11:30 50.45621 3.35636 17870 ft 297 kts 46°
2026-04-29 11:30 50.47089 3.37928 17607 ft 297 kts 46°
2026-04-29 11:31 50.48545 3.40205 17375 ft 293 kts 46°
2026-04-29 11:31 50.49984 3.42455 17073 ft 290 kts 46°
2026-04-29 11:31 50.51407 3.44684 16792 ft 288 kts 46°
2026-04-29 11:31 50.52819 3.46899 16485 ft 286 kts 46°
2026-04-29 11:32 50.54191 3.49151 16177 ft 283 kts 54°
2026-04-29 11:32 50.55065 3.51880 15927 ft 279 kts 71°
2026-04-29 11:32 50.55639 3.54783 15628 ft 278 kts 73°
2026-04-29 11:32 50.56179 3.57698 15340 ft 277 kts 73°
2026-04-29 11:33 50.56711 3.60599 15044 ft 276 kts 73°
2026-04-29 11:33 50.57243 3.63488 14757 ft 275 kts 73°
2026-04-29 11:33 50.57777 3.66370 14465 ft 274 kts 73°
2026-04-29 11:33 50.58310 3.69235 14179 ft 272 kts 73°
2026-04-29 11:34 50.58844 3.72094 13869 ft 272 kts 73°
2026-04-29 11:34 50.59375 3.74939 13550 ft 271 kts 73°
2026-04-29 11:34 50.59905 3.77773 13258 ft 269 kts 73°
2026-04-29 11:34 50.60431 3.80590 12955 ft 268 kts 73°
2026-04-29 11:35 50.60956 3.83398 12678 ft 266 kts 73°
2026-04-29 11:35 50.61468 3.86147 12411 ft 264 kts 74°
2026-04-29 11:35 50.61983 3.88913 12109 ft 263 kts 74°
2026-04-29 11:35 50.62498 3.91673 11831 ft 262 kts 74°
2026-04-29 11:36 50.63010 3.94428 11561 ft 261 kts 74°
2026-04-29 11:36 50.63518 3.97166 11274 ft 260 kts 74°
2026-04-29 11:36 50.64024 3.99900 10991 ft 259 kts 74°
2026-04-29 11:36 50.64527 4.02615 10723 ft 257 kts 74°
2026-04-29 11:37 50.65026 4.05314 10438 ft 256 kts 74°
2026-04-29 11:37 50.65517 4.07974 10318 ft 249 kts 74°
2026-04-29 11:37 50.65996 4.10574 10095 ft 247 kts 74°
2026-04-29 11:37 50.66471 4.13157 9833 ft 244 kts 74°
2026-04-29 11:38 50.66944 4.15728 9562 ft 244 kts 74°
2026-04-29 11:38 50.67414 4.18287 9285 ft 243 kts 75°
2026-04-29 11:38 50.67880 4.20834 9024 ft 241 kts 75°
2026-04-29 11:38 50.68024 4.23440 8715 ft 242 kts 100°
2026-04-29 11:39 50.67301 4.25821 8392 ft 247 kts 129°
2026-04-29 11:39 50.65862 4.27337 8072 ft 257 kts 157°
2026-04-29 11:39 50.64055 4.27553 7758 ft 269 kts 187°
2026-04-29 11:39 50.62315 4.26409 7459 ft 276 kts 208°
2026-04-29 11:40 50.60727 4.24700 7107 ft 276 kts 212°
2026-04-29 11:40 50.59181 4.22943 6797 ft 273 kts 212°
2026-04-29 11:40 50.57654 4.21171 6480 ft 272 kts 212°
2026-04-29 11:40 50.56139 4.19408 6146 ft 270 kts 212°
2026-04-29 11:41 50.54636 4.17648 5813 ft 268 kts 212°
2026-04-29 11:41 50.53146 4.15908 5487 ft 266 kts 212°
2026-04-29 11:41 50.51670 4.14165 5156 ft 265 kts 212°
2026-04-29 11:41 50.50207 4.12430 4833 ft 263 kts 212°
2026-04-29 11:42 50.48758 4.10686 4491 ft 261 kts 212°
2026-04-29 11:42 50.47245 4.09180 4152 ft 253 kts 193°
2026-04-29 11:42 50.45566 4.08917 3802 ft 238 kts 165°
2026-04-29 11:42 50.44075 4.09846 3505 ft 228 kts 143°
2026-04-29 11:43 50.42949 4.11536 3168 ft 222 kts 123°
2026-04-29 11:43 50.42117 4.13524 2946 ft 216 kts 119°
2026-04-29 11:43 50.41333 4.15520 2697 ft 214 kts 120°
2026-04-29 11:43 50.40560 4.17473 2527 ft 205 kts 118°
2026-04-29 11:44 50.39833 4.19302 2499 ft 190 kts 117°
2026-04-29 11:44 50.39475 4.21147 2476 ft 170 kts 81°
2026-04-29 11:44 50.39833 4.22869 2498 ft 165 kts 76°
2026-04-29 11:44 50.40126 4.24585 2515 ft 163 kts 74°
2026-04-29 11:45 50.40513 4.26209 2497 ft 155 kts 72°
2026-04-29 11:45 50.40930 4.27751 2484 ft 154 kts 69°
2026-04-29 11:45 50.41359 4.29278 2511 ft 153 kts 69°
2026-04-29 11:45 50.41797 4.30815 2462 ft 155 kts 69°
2026-04-29 11:46 50.42235 4.32326 2266 ft 150 kts 69°
2026-04-29 11:46 50.42651 4.33770 2079 ft 140 kts 68°
2026-04-29 11:46 50.43028 4.35076 1899 ft 124 kts 67°
2026-04-29 11:46 50.43376 4.36278 1757 ft 123 kts 66°
2026-04-29 11:47 50.43723 4.37480 1581 ft 118 kts 66°
2026-04-29 11:47 50.44066 4.38659 1420 ft 120 kts 66°
2026-04-29 11:47 50.44406 4.39850 1308 ft 120 kts 65°
2026-04-29 11:47 50.44757 4.41071 1128 ft 122 kts 65°
2026-04-29 11:48 50.45113 4.42286 939 ft 125 kts 65°
2026-04-29 11:48 50.45473 4.43511 772 ft 122 kts 65°
2026-04-29 11:48 50.45824 4.44726 658 ft 120 kts 64°
2026-04-29 11:48 50.46134 4.45796 623 ft 87 kts 65°
2026-04-29 11:49 50.46298 4.46356 622 ft 31 kts 65°
2026-04-29 11:49 50.46367 4.46595 619 ft 23 kts 65°
2026-04-29 11:49 50.46430 4.46807 616 ft 17 kts 65°
2026-04-29 11:49 50.46489 4.46892 617 ft 11 kts
2026-04-29 11:50 50.46563 4.46859 616 ft 11 kts 333°
2026-04-29 11:50 50.46618 4.46817 620 ft 8 kts 335°
2026-04-29 11:50 50.46657 4.46798 612 ft 6 kts 359°
2026-04-29 11:50 50.46680 4.46818 618 ft 6 kts 49°
2026-04-29 11:51 50.46704 4.46886 617 ft 8 kts 64°
2026-04-29 11:51 50.46732 4.46980 620 ft 11 kts 65°
2026-04-29 11:51 50.46768 4.47101 612 ft 13 kts 65°
2026-04-29 11:51 50.46811 4.47245 611 ft 16 kts 65°
2026-04-29 11:52 50.46848 4.47339 613 ft 8 kts 20°
2026-04-29 11:52 50.46890 4.47316 617 ft 6 kts 334°
2026-04-29 11:52 50.46918 4.47296 618 ft 4 kts 335°
2026-04-29 11:52 50.46930 4.47288 611 ft 0 kts 336°